Tracking 28790 objects as of 18-Apr-2024
HD Live streaming from Space Station
objects crossing your sky now

COSMOS 1275 DEB

Track COSMOS 1275 DEB now!
10-day predictions


NORAD ID: 39965
Int'l Code: 1981-053PH
Perigee: 927.5 km
Apogee: 995.8 km
Inclination: 83.0 °
Period: 104.1 minutes
Semi major axis: 7332 km
RCS: 0.0025 m2 (small)
Launch date: April 25, 1981
Source: Commonwealth of Independent States (former USSR) (CIS)
Launch site: PLESETSK MISSILE AND SPACE COMPLEX (PKMTR)

Note: This is SATELLITE DEBRIS
Your satellite tracking list
Your tracking list is empty




NASA's NSSDC Master Catalog

Two Line Element Set (TLE):
1 39965U 81053PB  24109.01983060  .00001540  00000-0  13925-2 0  9994
2 39965  82.9640 124.7470 0046537  62.2636 329.8349 13.82643345497342
Source of the keplerian elements: AFSPC